Time,TemperatureF,DewpointF,PressureIn,WindDirection,WindDirectionDegrees,WindSpeedMPH,WindSpeedGustMPH,Humidity,HourlyPrecipIn,Conditions,Clouds,dailyrainin,SolarRadiationWatts/m^2,SoftwareType,DateUTC
2013-06-16 00:01:00,67.0,38.0,28.76,North,355,0.0,2.0,35,0.00,,,0.00,0.000000,,2013-06-16 07:01:00,
2013-06-16 00:11:00,68.0,36.0,28.76,NW,315,1.0,4.0,31,0.00,,,0.00,0.000000,,2013-06-16 07:11:00,
2013-06-16 00:22:00,68.0,36.0,28.76,NW,315,1.0,4.0,31,0.00,,,0.00,0.000000,,2013-06-16 07:22:00,
2013-06-16 00:32:00,68.0,36.0,28.76,NW,319,0.0,3.0,31,0.00,,,0.00,0.000000,,2013-06-16 07:32:00,
2013-06-16 00:43:00,67.0,36.0,28.76,NW,320,0.0,1.0,32,0.00,,,0.00,0.000000,,2013-06-16 07:43:00,
2013-06-16 00:53:00,66.0,36.0,28.76,NW,320,0.0,1.0,33,0.00,,,0.00,0.000000,,2013-06-16 07:53:00,
2013-06-16 01:02:00,66.0,36.0,28.76,NW,320,0.0,1.0,33,0.00,,,0.00,0.000000,,2013-06-16 08:02:00,
2013-06-16 01:11:00,66.0,36.0,28.76,WNW,298,0.0,1.0,33,0.00,,,0.00,0.000000,,2013-06-16 08:11:00,
2013-06-16 01:22:00,66.0,38.0,28.76,WNW,298,0.0,1.0,35,0.00,,,0.00,0.000000,,2013-06-16 08:22:00,
2013-06-16 01:33:00,66.0,38.0,28.76,WNW,298,0.0,1.0,35,0.00,,,0.00,0.000000,,2013-06-16 08:33:00,
2013-06-16 01:43:00,65.0,38.0,28.76,WNW,298,0.0,0.0,37,0.00,,,0.00,0.000000,,2013-06-16 08:43:00,
2013-06-16 01:54:00,64.0,38.0,28.76,WNW,298,0.0,1.0,38,0.00,,,0.00,0.000000,,2013-06-16 08:54:00,
2013-06-16 02:01:00,64.0,38.0,28.76,WNW,298,0.0,1.0,38,0.00,,,0.00,0.000000,,2013-06-16 09:01:00,
2013-06-16 02:11:00,63.0,38.0,28.77,WNW,298,0.0,2.0,39,0.00,,,0.00,0.000000,,2013-06-16 09:11:00,
2013-06-16 02:22:00,63.0,38.0,28.77,WNW,298,0.0,1.0,40,0.00,,,0.00,0.000000,,2013-06-16 09:22:00,
2013-06-16 02:33:00,63.0,38.0,28.77,WNW,298,0.0,1.0,40,0.00,,,0.00,0.000000,,2013-06-16 09:33:00,
2013-06-16 02:42:00,63.0,38.0,28.77,WNW,298,0.0,0.0,40,0.00,,,0.00,0.000000,,2013-06-16 09:42:00,
2013-06-16 02:52:00,63.0,38.0,28.77,WNW,298,0.0,0.0,40,0.00,,,0.00,0.000000,,2013-06-16 09:52:00,
2013-06-16 03:01:00,63.0,38.0,28.77,WNW,298,0.0,0.0,40,0.00,,,0.00,0.000000,,2013-06-16 10:01:00,
2013-06-16 03:12:00,62.0,38.0,28.77,WNW,298,0.0,1.0,41,0.00,,,0.00,0.000000,,2013-06-16 10:12:00,
2013-06-16 03:22:00,61.0,38.0,28.77,WNW,298,0.0,1.0,43,0.00,,,0.00,0.000000,,2013-06-16 10:22:00,
2013-06-16 03:33:00,61.0,38.0,28.77,WNW,298,0.0,1.0,43,0.00,,,0.00,0.000000,,2013-06-16 10:33:00,
2013-06-16 03:42:00,59.0,38.0,28.77,WNW,298,0.0,1.0,45,0.00,,,0.00,0.000000,,2013-06-16 10:42:00,
2013-06-16 03:53:00,59.0,39.0,28.78,WNW,298,0.0,0.0,47,0.00,,,0.00,0.000000,,2013-06-16 10:53:00,
2013-06-16 04:02:00,59.0,39.0,28.78,WNW,298,0.0,0.0,47,0.00,,,0.00,0.000000,,2013-06-16 11:02:00,
2013-06-16 04:11:00,59.0,38.0,28.78,WNW,298,0.0,0.0,46,0.00,,,0.00,0.000000,,2013-06-16 11:11:00,
2013-06-16 04:22:00,59.0,38.0,28.78,WNW,298,0.0,0.0,46,0.00,,,0.00,0.000000,,2013-06-16 11:22:00,
2013-06-16 04:33:00,58.0,38.0,28.78,WNW,298,0.0,0.0,48,0.00,,,0.00,0.000000,,2013-06-16 11:33:00,
2013-06-16 04:43:00,57.0,40.0,28.78,WNW,298,0.0,1.0,52,0.00,,,0.00,0.000000,,2013-06-16 11:43:00,
2013-06-16 04:52:00,57.0,40.0,28.78,WNW,298,0.0,1.0,52,0.00,,,0.00,0.000000,,2013-06-16 11:52:00,
2013-06-16 05:01:00,56.0,39.0,28.78,ENE,69,0.0,1.0,53,0.00,,,0.00,0.000000,,2013-06-16 12:01:00,
2013-06-16 05:11:00,57.0,39.0,28.78,ENE,69,0.0,0.0,51,0.00,,,0.00,0.000000,,2013-06-16 12:11:00,
2013-06-16 05:22:00,57.0,40.0,28.79,ENE,69,0.0,0.0,52,0.00,,,0.00,0.000000,,2013-06-16 12:22:00,
2013-06-16 05:32:00,57.0,40.0,28.79,ENE,69,0.0,0.0,52,0.00,,,0.00,0.000000,,2013-06-16 12:32:00,
2013-06-16 05:42:00,56.0,38.0,28.79,ENE,69,0.0,1.0,51,0.00,,,0.00,0.000000,,2013-06-16 12:42:00,
2013-06-16 05:53:00,57.0,39.0,28.79,ENE,69,0.0,0.0,51,0.00,,,0.00,0.000000,,2013-06-16 12:53:00,
2013-06-16 06:01:00,57.0,39.0,28.79,ENE,69,0.0,0.0,51,0.00,,,0.00,0.000000,,2013-06-16 13:01:00,
2013-06-16 06:11:00,56.0,39.0,28.80,ENE,69,0.0,0.0,53,0.00,,,0.00,5.000000,,2013-06-16 13:11:00,
2013-06-16 06:22:00,56.0,39.0,28.80,ENE,69,0.0,0.0,53,0.00,,,0.00,5.000000,,2013-06-16 13:22:00,
2013-06-16 06:34:00,55.0,39.0,28.81,ENE,69,0.0,0.0,54,0.00,,,0.00,11.000000,,2013-06-16 13:34:00,
2013-06-16 06:42:00,55.0,40.0,28.81,ENE,69,0.0,0.0,56,0.00,,,0.00,14.000000,,2013-06-16 13:42:00,
2013-06-16 06:53:00,55.0,40.0,28.81,ENE,69,0.0,0.0,56,0.00,,,0.00,14.000000,,2013-06-16 13:53:00,
2013-06-16 07:01:00,55.0,40.0,28.81,ENE,69,0.0,0.0,57,0.00,,,0.00,21.000000,,2013-06-16 14:01:00,
2013-06-16 07:12:00,55.0,41.0,28.82,ENE,69,0.0,0.0,59,0.00,,,0.00,28.000000,,2013-06-16 14:12:00,
2013-06-16 07:22:00,55.0,41.0,28.82,ENE,69,0.0,0.0,58,0.00,,,0.00,35.000000,,2013-06-16 14:22:00,
2013-06-16 07:34:00,55.0,41.0,28.82,ENE,69,0.0,0.0,58,0.00,,,0.00,35.000000,,2013-06-16 14:34:00,
2013-06-16 07:43:00,56.0,43.0,28.82,ENE,69,0.0,0.0,61,0.00,,,0.00,39.000000,,2013-06-16 14:43:00,
2013-06-16 07:52:00,56.0,43.0,28.82,ENE,69,0.0,0.0,61,0.00,,,0.00,39.000000,,2013-06-16 14:52:00,
2013-06-16 08:02:00,58.0,43.0,28.82,ENE,69,0.0,0.0,58,0.00,,,0.00,241.000000,,2013-06-16 15:02:00,
2013-06-16 08:12:00,61.0,45.0,28.82,ENE,69,0.0,0.0,55,0.00,,,0.00,287.000000,,2013-06-16 15:12:00,
2013-06-16 08:22:00,63.0,45.0,28.83,East,89,0.0,1.0,52,0.00,,,0.00,334.000000,,2013-06-16 15:22:00,
2013-06-16 08:33:00,63.0,45.0,28.83,East,89,0.0,1.0,52,0.00,,,0.00,334.000000,,2013-06-16 15:33:00,
2013-06-16 08:43:00,65.0,46.0,28.83,East,89,0.0,1.0,50,0.00,,,0.00,380.000000,,2013-06-16 15:43:00,
2013-06-16 08:52:00,68.0,47.0,28.83,SE,138,1.0,2.0,47,0.00,,,0.00,427.000000,,2013-06-16 15:52:00,
2013-06-16 09:01:00,68.0,47.0,28.83,SE,138,1.0,2.0,47,0.00,,,0.00,427.000000,,2013-06-16 16:01:00,
2013-06-16 09:11:00,71.0,47.0,28.84,South,191,0.0,2.0,43,0.00,,,0.00,471.000000,,2013-06-16 16:11:00,
2013-06-16 09:22:00,71.0,47.0,28.84,South,191,0.0,2.0,43,0.00,,,0.00,471.000000,,2013-06-16 16:22:00,
2013-06-16 10:34:00,82.0,43.0,28.84,NNE,13,2.0,7.0,25,0.00,,,0.00,689.000000,,2013-06-16 17:34:00,
2013-06-16 12:33:00,90.0,41.0,28.84,WSW,245,2.0,7.0,18,0.00,,,0.00,919.000000,,2013-06-16 19:33:00,
2013-06-16 13:01:00,88.0,46.0,28.84,SW,217,1.0,5.0,23,0.00,,,0.00,947.000000,,2013-06-16 20:01:00,
2013-06-16 13:11:00,88.0,46.0,28.84,SW,217,1.0,5.0,23,0.00,,,0.00,947.000000,,2013-06-16 20:11:00,
2013-06-16 13:22:00,88.0,46.0,28.84,SW,219,2.0,4.0,23,0.00,,,0.00,951.000000,,2013-06-16 20:22:00,
2013-06-16 13:33:00,88.0,46.0,28.84,West,261,2.0,4.0,23,0.00,,,0.00,963.000000,,2013-06-16 20:33:00,
2013-06-16 13:42:00,88.0,46.0,28.84,SW,227,3.0,6.0,23,0.00,,,0.00,967.000000,,2013-06-16 20:42:00,
2013-06-16 13:53:00,88.0,46.0,28.84,SW,227,3.0,6.0,23,0.00,,,0.00,967.000000,,2013-06-16 20:53:00,
2013-06-16 14:01:00,89.0,44.0,28.84,SW,219,2.0,6.0,21,0.00,,,0.00,965.000000,,2013-06-16 21:01:00,
2013-06-16 14:11:00,89.0,44.0,28.84,SW,219,2.0,6.0,21,0.00,,,0.00,965.000000,,2013-06-16 21:11:00,
2013-06-16 14:21:00,88.0,43.0,28.83,South,190,2.0,6.0,21,0.00,,,0.00,960.000000,,2013-06-16 21:21:00,
2013-06-16 14:32:00,89.0,43.0,28.83,SW,227,3.0,5.0,20,0.00,,,0.00,953.000000,,2013-06-16 21:32:00,
2013-06-16 14:42:00,89.0,43.0,28.83,South,178,2.0,5.0,20,0.00,,,0.00,939.000000,,2013-06-16 21:42:00,
2013-06-16 14:52:00,89.0,43.0,28.83,South,178,2.0,5.0,20,0.00,,,0.00,939.000000,,2013-06-16 21:52:00,
2013-06-16 15:01:00,89.0,45.0,28.82,SSW,194,2.0,5.0,22,0.00,,,0.00,923.000000,,2013-06-16 22:01:00,
2013-06-16 15:11:00,90.0,42.0,28.83,SW,227,3.0,6.0,19,0.00,,,0.00,907.000000,,2013-06-16 22:11:00,
2013-06-16 15:22:00,90.0,42.0,28.83,SW,227,3.0,6.0,19,0.00,,,0.00,907.000000,,2013-06-16 22:22:00,
2013-06-16 15:32:00,90.0,42.0,28.83,SW,234,2.0,5.0,19,0.00,,,0.00,881.000000,,2013-06-16 22:32:00,
2013-06-16 15:41:00,90.0,42.0,28.83,South,182,3.0,6.0,19,0.00,,,0.00,858.000000,,2013-06-16 22:41:00,
2013-06-16 15:52:00,90.0,42.0,28.83,South,182,3.0,6.0,19,0.00,,,0.00,858.000000,,2013-06-16 22:52:00,
2013-06-16 16:01:00,91.0,43.0,28.83,WSW,241,1.0,4.0,19,0.00,,,0.00,831.000000,,2013-06-16 23:01:00,
2013-06-16 16:11:00,90.0,43.0,28.83,SW,231,1.0,5.0,20,0.00,,,0.00,798.000000,,2013-06-16 23:11:00,
2013-06-16 16:22:00,90.0,43.0,28.83,SW,231,1.0,5.0,20,0.00,,,0.00,798.000000,,2013-06-16 23:22:00,
2013-06-16 16:32:00,90.0,43.0,28.82,SW,220,3.0,5.0,20,0.00,,,0.00,763.000000,,2013-06-16 23:32:00,
2013-06-16 16:42:00,89.0,43.0,28.82,SSW,205,2.0,5.0,20,0.00,,,0.00,729.000000,,2013-06-16 23:42:00,
2013-06-16 16:51:00,89.0,43.0,28.82,SSW,205,2.0,5.0,20,0.00,,,0.00,729.000000,,2013-06-16 23:51:00,
2013-06-16 17:01:00,88.0,41.0,28.83,SSW,212,3.0,5.0,19,0.00,,,0.00,691.000000,,2013-06-17 00:01:00,
2013-06-16 17:11:00,88.0,42.0,28.82,SW,226,2.0,5.0,20,0.00,,,0.00,650.000000,,2013-06-17 00:11:00,
2013-06-16 17:22:00,88.0,42.0,28.82,SW,226,2.0,5.0,20,0.00,,,0.00,650.000000,,2013-06-17 00:22:00,
2013-06-16 17:32:00,86.0,40.0,28.82,SW,221,3.0,5.0,20,0.00,,,0.00,283.000000,,2013-06-17 00:32:00,
2013-06-16 17:42:00,86.0,43.0,28.83,WSW,252,3.0,5.0,22,0.00,,,0.00,63.000000,,2013-06-17 00:42:00,
2013-06-16 17:52:00,86.0,43.0,28.83,WSW,252,3.0,5.0,22,0.00,,,0.00,63.000000,,2013-06-17 00:52:00,
2013-06-16 18:02:00,86.0,43.0,28.83,WSW,251,2.0,4.0,22,0.00,,,0.00,197.000000,,2013-06-17 01:02:00,
2013-06-16 18:11:00,85.0,43.0,28.83,SW,229,1.0,4.0,23,0.00,,,0.00,58.000000,,2013-06-17 01:11:00,
2013-06-16 18:22:00,85.0,43.0,28.83,SW,229,1.0,4.0,23,0.00,,,0.00,58.000000,,2013-06-17 01:22:00,
2013-06-16 18:32:00,85.0,43.0,28.83,SW,233,1.0,5.0,23,0.00,,,0.00,37.000000,,2013-06-17 01:32:00,
2013-06-16 18:43:00,84.0,43.0,28.83,West,273,1.0,5.0,24,0.00,,,0.00,39.000000,,2013-06-17 01:43:00,
2013-06-16 18:53:00,84.0,43.0,28.83,West,273,1.0,5.0,24,0.00,,,0.00,39.000000,,2013-06-17 01:53:00,
2013-06-16 19:02:00,83.0,44.0,28.84,NW,318,2.0,12.0,25,0.00,,,0.00,33.000000,,2013-06-17 02:02:00,
2013-06-16 19:11:00,81.0,43.0,28.84,WSW,252,2.0,14.0,26,0.00,,,0.00,33.000000,,2013-06-17 02:11:00,
2013-06-16 19:22:00,81.0,43.0,28.84,WSW,252,2.0,14.0,26,0.00,,,0.00,33.000000,,2013-06-17 02:22:00,
2013-06-16 19:34:00,80.0,41.0,28.84,SW,235,1.0,12.0,25,0.00,,,0.00,26.000000,,2013-06-17 02:34:00,
2013-06-16 19:43:00,79.0,43.0,28.85,NW,313,2.0,7.0,28,0.00,,,0.00,23.000000,,2013-06-17 02:43:00,
2013-06-16 19:53:00,79.0,43.0,28.85,NW,313,2.0,7.0,28,0.00,,,0.00,23.000000,,2013-06-17 02:53:00,
2013-06-16 20:02:00,78.0,44.0,28.85,NW,323,2.0,7.0,30,0.00,,,0.00,21.000000,,2013-06-17 03:02:00,
2013-06-16 20:11:00,78.0,44.0,28.85,NW,323,2.0,7.0,30,0.00,,,0.00,21.000000,,2013-06-17 03:11:00,
2013-06-16 20:22:00,77.0,45.0,28.85,WNW,291,3.0,8.0,32,0.00,,,0.00,18.000000,,2013-06-17 03:22:00,
2013-06-16 20:33:00,76.0,44.0,28.85,NNW,338,3.0,9.0,32,0.00,,,0.00,12.000000,,2013-06-17 03:33:00,
2013-06-16 20:44:00,74.0,43.0,28.85,WNW,300,2.0,7.0,33,0.00,,,0.00,7.000000,,2013-06-17 03:44:00,
2013-06-16 20:53:00,74.0,43.0,28.85,WNW,300,2.0,7.0,33,0.00,,,0.00,7.000000,,2013-06-17 03:53:00,
2013-06-16 21:02:00,73.0,42.0,28.85,WNW,290,3.0,9.0,33,0.00,,,0.00,0.000000,,2013-06-17 04:02:00,
2013-06-16 21:12:00,72.0,41.0,28.85,NW,315,3.0,9.0,33,0.00,,,0.00,0.000000,,2013-06-17 04:12:00,
2013-06-16 21:22:00,72.0,41.0,28.85,NW,315,3.0,9.0,33,0.00,,,0.00,0.000000,,2013-06-17 04:22:00,
2013-06-16 21:33:00,72.0,42.0,28.85,NW,315,0.0,8.0,34,0.00,,,0.00,0.000000,,2013-06-17 04:33:00,
2013-06-16 21:42:00,71.0,42.0,28.86,NNW,328,0.0,3.0,35,0.00,,,0.00,0.000000,,2013-06-17 04:42:00,
2013-06-16 21:53:00,71.0,42.0,28.86,NNW,328,0.0,3.0,35,0.00,,,0.00,0.000000,,2013-06-17 04:53:00,
2013-06-16 22:02:00,70.0,42.0,28.86,WNW,301,0.0,7.0,36,0.00,,,0.00,0.000000,,2013-06-17 05:02:00,
2013-06-16 22:11:00,70.0,42.0,28.86,WNW,301,0.0,7.0,36,0.00,,,0.00,0.000000,,2013-06-17 05:11:00,
2013-06-16 22:22:00,69.0,42.0,28.86,WNW,299,1.0,6.0,37,0.00,,,0.00,0.000000,,2013-06-17 05:22:00,
2013-06-16 22:33:00,69.0,42.0,28.86,WNW,290,1.0,5.0,38,0.00,,,0.00,0.000000,,2013-06-17 05:33:00,
2013-06-16 22:44:00,68.0,41.0,28.87,NW,309,1.0,7.0,38,0.00,,,0.00,0.000000,,2013-06-17 05:44:00,
2013-06-16 22:53:00,68.0,41.0,28.87,NW,309,1.0,7.0,38,0.00,,,0.00,0.000000,,2013-06-17 05:53:00,
2013-06-16 23:02:00,68.0,41.0,28.87,NW,324,1.0,6.0,38,0.00,,,0.00,0.000000,,2013-06-17 06:02:00,
2013-06-16 23:12:00,68.0,41.0,28.87,NW,324,1.0,6.0,38,0.00,,,0.00,0.000000,,2013-06-17 06:12:00,
2013-06-16 23:22:00,68.0,41.0,28.86,NW,318,0.0,4.0,38,0.00,,,0.00,0.000000,,2013-06-17 06:22:00,
2013-06-16 23:32:00,68.0,42.0,28.86,NNW,344,0.0,4.0,39,0.00,,,0.00,0.000000,,2013-06-17 06:32:00,
2013-06-16 23:43:00,68.0,42.0,28.86,North,355,0.0,3.0,39,0.00,,,0.00,0.000000,,2013-06-17 06:43:00,
2013-06-16 23:53:00,68.0,42.0,28.86,North,355,0.0,3.0,39,0.00,,,0.00,0.000000,,2013-06-17 06:53:00,